GW6754 Weather Reports


time (UTC)temp
F
wind
direction
speed
knots
gust
knots
rain 1hr
in
rain 24hr
in
rain mn
in
humidity
%
barometer
mb
20260506184231 85 79 0.9 5.2 0.00 0.00 0.00 78 1009.8
20260506183303 85 173 1.7 6.1 0.00 0.00 0.00 77 1009.8
20260506182229 83 153 1.7 3.5 0.00 0.00 0.00 83 1010.0
20260506181235 81 61 0.9 5.2 0.00 0.00 0.00 83 1010.2
20260506180241 81 175 2.6 4.3 0.00 0.00 0.00 86 1010.3
20260506175249 80 114 0.9 1.7 0.00 0.00 0.00 86 1010.6
20260506174300 80 132 0.9 4.3 0.00 0.00 0.00 86 1010.9
20260506173227 81 45 0.9 4.3 0.00 0.00 0.00 85 1011.1
20260506172236 81 168 0.0 3.5 0.00 0.00 0.00 85 1011.2
20260506171241 80 54 0.9 2.6 0.00 0.00 0.00 87 1011.2
20260506170233 79 52 0.0 2.6 0.00 0.00 0.00 88 1011.3
20260506165242 79 123 0.0 1.7 0.00 0.00 0.00 88 1011.3
20260506164248 79 128 0.0 1.7 0.00 0.00 0.00 87 1011.3
20260506163235 80 146 0.9 3.5 0.00 0.00 0.00 86 1011.2
20260506162227 81 164 0.9 4.3 0.00 0.00 0.00 84 1011.1
20260506161254 81 152 0.9 3.5 0.00 0.00 0.00 83 1010.8
20260506160241 81 125 1.7 5.2 0.00 0.00 0.00 84 1010.6
20260506155229 80 42 0.9 5.2 0.00 0.00 0.00 85 1010.5
20260506154239 80 99 0.9 2.6 0.00 0.00 0.00 85 1010.5
20260506153227 79 99 0.0 2.6 0.00 0.00 0.00 86 1010.4
20260506152235 79 148 0.9 4.3 0.00 0.00 0.00 85 1010.5
20260506151242 79 154 2.6 4.3 0.00 0.00 0.00 85 1010.5
20260506150303 79 74 0.9 5.2 0.00 0.00 0.00 86 1010.2
20260506145240 79 187 0.9 5.2 0.00 0.00 0.00 87 1010.1
20260506144228 79 177 0.0 3.5 0.00 0.00 0.00 88 1010.1
20260506143237 78 133 1.7 4.3 0.00 0.00 0.00 89 1009.9
20260506142229 78 169 1.7 4.3 0.00 0.00 0.00 89 1009.6
20260506141235 77 158 0.0 3.5 0.00 0.00 0.00 90 1009.5
20260506140244 77 129 0.9 3.5 0.00 0.00 0.00 90 1009.6
20260506135231 77 171 1.7 6.1 0.00 0.00 0.00 91 1009.6
20260506134242 77 44 0.0 3.5 0.00 0.00 0.00 92 1009.6
20260506133251 77 159 0.9 3.5 0.00 0.00 0.00 92 1009.6
20260506132238 76 161 0.9 6.1 0.00 0.00 0.00 92 1009.7
20260506131224 76 51 0.9 5.2 0.00 0.00 0.00 93 1009.7
20260506130257 76 180 2.6 5.2 0.00 0.00 0.00 93 1009.9
20260506125225 75 145 0.9 2.6 0.00 0.00 0.00 93 1009.8
20260506124230 75 91 0.0 2.6 0.00 0.00 0.00 93 1009.6
20260506123239 75 198 0.0 1.7 0.00 0.00 0.00 93 1009.5
20260506122231 75 59 0.0 2.6 0.00 0.00 0.00 93 1009.5
20260506121237 75 79 0.0 1.7 0.00 0.00 0.00 92 1009.4
20260506120246 75 141 0.0 2.6 0.00 0.00 0.00 92 1009.4
20260506115254 75 77 0.0 2.6 0.00 0.00 0.00 92 1009.2
20260506114239 75 144 0.9 4.3 0.00 0.00 0.00 92 1009.1
20260506113232 75 156 1.7 4.3 0.00 0.00 0.00 92 1009.1
20260506112239 75 192 1.7 4.3 0.00 0.00 0.00 92 1009.0
20260506111225 75 173 3.5 6.1 0.00 0.00 0.00 92 1008.7
20260506110253 75 171 1.7 4.3 0.00 0.00 0.00 92 1008.8
20260506105243 75 148 3.5 7.0 0.00 0.00 0.00 92 1008.6
20260506104229 75 157 3.5 8.7 0.00 0.00 0.00 92 1008.6
20260506103238 75 164 1.7 7.8 0.00 0.00 0.00 92 1008.5
20260506102231 75 160 2.6 5.2 0.00 0.00 0.00 92 1008.4
20260506101234 75 155 1.7 5.2 0.00 0.00 0.00 92 1008.6
20260506100259 75 185 1.7 7.8 0.00 0.00 0.00 92 1008.6
20260506095242 75 159 1.7 6.1 0.00 0.00 0.00 92 1008.5
20260506094225 76 164 2.6 6.1 0.00 0.00 0.00 92 1008.3
20260506093233 76 165 0.9 6.1 0.00 0.00 0.00 91 1008.2
20260506092257 76 156 2.6 7.8 0.00 0.00 0.00 91 1008.2
20260506091239 76 150 3.5 8.7 0.00 0.00 0.00 91 1008.1
20260506090244 76 168 3.5 7.0 0.00 0.00 0.00 91 1008.2
20260506085227 76 159 3.5 6.1 0.00 0.00 0.00 91 1008.2
20260506084234 76 173 2.6 6.1 0.00 0.00 0.00 91 1008.5
20260506083413 76 184 2.6 4.3 0.00 0.00 0.00 91 1008.5
20260506082243 76 188 1.7 4.3 0.00 0.00 0.00 91 1008.6
20260506081225 76 195 1.7 4.3 0.00 0.00 0.00 91 1008.7
20260506080235 76 159 1.7 3.5 0.00 0.00 0.00 91 1008.7
20260506073225 76 163 0.9 5.2 0.00 0.00 0.00 91 1009.0
20260506072250 76 163 2.6 6.1 0.00 0.00 0.00 91 1009.1
20260506071236 76 192 2.6 6.1 0.00 0.00 0.00 91 1009.4
20260506070241 76 166 0.9 4.3 0.00 0.00 0.00 90 1009.4
20260506062241 77 204 1.7 5.2 0.00 0.00 0.00 89 1009.3
20260506061244 77 177 2.6 6.1 0.00 0.00 0.00 89 1009.5
20260506060228 77 172 3.5 6.1 0.00 0.00 0.00 89 1009.5
20260506051249 77 155 2.6 6.1 0.00 0.00 0.00 88 1009.5
20260506050236 77 172 2.6 6.1 0.00 0.00 0.00 88 1009.6
20260506044224 77 133 2.6 8.7 0.00 0.00 0.00 87 1009.4
20260506043253 77 171 3.5 6.1 0.00 0.00 0.00 87 1009.3
20260506042224 77 196 3.5 6.1 0.00 0.00 0.00 87 1009.5
20260506041230 78 161 1.7 7.0 0.00 0.00 0.00 87 1009.4
20260506040238 78 176 2.6 8.7 0.00 0.00 0.00 86 1009.3
20260506035227 78 131 4.3 9.6 0.00 0.00 0.00 86 1009.2
20260506034237 78 181 3.5 7.8 0.00 0.00 0.00 86 1009.0
20260506033226 78 177 1.7 7.0 0.00 0.00 0.00 86 1009.1
20260506032234 78 158 1.7 6.1 0.00 0.00 0.00 86 1009.1
20260506031240 78 173 2.6 5.2 0.00 0.00 0.00 86 1008.8
20260506030253 78 161 2.6 7.0 0.00 0.00 0.00 85 1008.6
20260506025300 78 175 4.3 8.7 0.00 0.00 0.00 85 1008.4
20260506024225 78 185 3.5 7.8 0.00 0.00 0.00 85 1008.4
20260506023234 78 156 2.6 11.3 0.00 0.00 0.00 85 1008.3
20260506022305 78 218 4.3 8.7 0.00 0.00 0.00 84 1008.1
20260506021231 79 140 3.5 8.7 0.00 0.00 0.00 84 1008.0
20260506020300 79 178 3.5 8.7 0.00 0.00 0.00 83 1007.9
20260506015247 79 181 5.2 9.6 0.00 0.00 0.00 83 1007.8
20260506014233 79 168 1.7 9.6 0.00 0.00 0.00 82 1007.7
20260506013224 79 183 2.6 8.7 0.00 0.00 0.00 81 1007.6
20260506012232 79 133 4.3 7.8 0.00 0.00 0.00 81 1007.5
20260506011238 79 165 4.3 6.1 0.00 0.00 0.00 81 1007.3
20260506010226 80 165 2.6 8.7 0.00 0.00 0.00 80 1007.1
20260506005239 80 181 3.5 7.8 0.00 0.00 0.00 80 1007.0
20260506004226 80 171 3.5 8.7 0.00 0.00 0.00 79 1006.9
20260506003234 80 185 3.5 8.7 0.00 0.00 0.00 79 1006.9
20260506002301 80 172 4.3 11.3 0.00 0.00 0.00 78 1006.9
20260506001251 81 186 5.2 7.8 0.00 0.00 0.00 78 1006.8
20260506000259 81 186 5.2 11.3 0.00 0.00 0.00 77 1006.8
20260505235226 81 197 7.0 13.0 0.00 0.00 0.00 76 1006.8
20260505234232 81 182 6.1 10.4 0.00 0.00 0.00 77 1006.8
20260505233301 81 196 4.3 10.4 0.00 0.00 0.00 77 1006.8
20260505232231 82 188 7.8 14.8 0.00 0.00 0.00 76 1006.7
20260505231238 82 172 6.1 12.2 0.00 0.00 0.00 76 1006.7
20260505230226 82 184 5.2 11.3 0.00 0.00 0.00 76 1006.7
20260505225234 82 210 7.0 13.9 0.00 0.00 0.00 75 1006.8
20260505224303 83 190 5.2 14.8 0.00 0.00 0.00 75 1006.6
20260505223230 82 175 7.0 14.8 0.00 0.00 0.00 75 1006.8
20260505222236 83 208 7.0 13.9 0.00 0.00 0.00 74 1006.8
20260505221242 83 218 7.0 14.8 0.00 0.00 0.00 74 1006.8
20260505220229 83 184 7.0 15.6 0.00 0.00 0.00 75 1006.8
20260505215301 83 175 6.1 14.8 0.00 0.00 0.00 75 1007.0
20260505214244 83 220 7.8 13.0 0.00 0.00 0.00 74 1007.3
20260505213233 83 176 7.0 13.0 0.00 0.00 0.00 75 1007.4
20260505212301 83 173 7.0 13.0 0.00 0.00 0.00 75 1007.5
20260505211230 83 163 7.8 15.6 0.00 0.00 0.00 75 1007.6
20260505210240 83 173 7.8 14.8 0.00 0.00 0.00 75 1007.8
20260505205228 84 162 6.1 13.0 0.00 0.00 0.00 75 1007.9
20260505204234 83 159 7.8 13.9 0.00 0.00 0.00 75 1007.9
20260505203228 83 129 7.8 13.9 0.00 0.00 0.00 75 1008.1
20260505202236 83 181 7.0 13.9 0.00 0.00 0.00 76 1008.2
20260505201242 83 221 8.7 13.0 0.00 0.00 0.00 75 1008.3
20260505200252 82 202 6.1 13.0 0.00 0.00 0.00 77 1008.5
20260505195241 82 204 5.2 12.2 0.00 0.00 0.00 78 1008.6
20260505194228 82 67 4.3 10.4 0.00 0.00 0.00 77 1008.8
20260505193237 82 186 5.2 10.4 0.00 0.00 0.00 78 1008.9
20260505192225 81 198 3.5 10.4 0.00 0.00 0.00 78 1009.0
20260505191234 82 185 5.2 9.6 0.00 0.00 0.00 78 1009.0
20260505190303 81 169 6.1 12.2 0.00 0.00 0.00 78 1009.1
20260505185230 81 187 5.2 10.4 0.00 0.00 0.00 79 1009.1